Location: Dal�� Lhota
(48.7500°N, 14.0167°E)
Time: 02:39:51
(UTC+00:00)

Cosmos 2098 Rocket - Pass Details

Date: 24 September 2020
Orbit: 366 x 1185 km, 82.9° (Epoch: 29 October)

Event Time Altitude Azimuth Distance (km) Brightness Sun altitude
Rises 19:10:08 0° 352° (N) 3,971 7.7 -22.1°
Reaches altitude 10° 19:13:03 10° 357° (N) 2,928 6.8 -22.5°
Maximum altitude 19:19:41 53° 73° (ENE) 1,157 4.1 -23.5°
Enters shadow 19:20:21 50° 96° (E) 1,170 4.0 -23.6°
